User: anonymous   Login
Location: Unspecified
(0.0000°N, 0.0000°E)
Time: 08:52:30
(UTC+00:00)
Language:

COSMOS 2471 (GLONASS) - Orbit

View from above orbital plane
View from above orbital plane
View from above satellite
View from above satellite

Ground track
Ground track

The orbit data is extracted from the following two-line orbital elements,

1 37372U 11009A   19049.49375491 -.00000009  00000-0  00000+0 0  9997
2 37372  65.6885  44.0204 0010032 241.0577 298.2855  2.13107636 62071
Epoch (UTC): 18 February 2019 11:51:00
Eccentricity: 0.0010032
inclination: 65.6885°
perigee height: 19103 km
apogee height: 19155 km
right ascension of ascending node: 44.0204°
argument of perigee: 241.0577°
revolutions per day: 2.13107636
mean anomaly at epoch: 298.2855°
orbit number at epoch: 6207

The dashed part of the orbit path shows where the satellite is in the earth's shadow,  

DLR